Weather History for KHHR - December, 2012

Change the Weather History Date:

Thursday, December 6, 2012

  Actual Average Record
Temperature  
Mean Temperature 62 °F -  
Max Temperature 66 °F 66 °F 85 °F (1979)
Min Temperature 57 °F 49 °F 39 °F (1960)
Degree Days  
Heating Degree Days 4    
Growing Degree Days 12 (Base 50)    
Moisture  
Dew Point 53 °F    
Average Humidity 76    
Maximum Humidity 89    
Minimum Humidity 57    
Precipitation  
Precipitation 0.00 in - - ()
Sea Level Pressure  
Sea Level Pressure 29.95 in    
Wind  
Wind Speed 1 mph (West)    
Max Wind Speed 10 mph    
Max Gust Speed -    
Visibility 5 miles    
Events      
Averages and records for this station are not official NWS values.
T = Trace of Precipitation, MM = Missing Value Source: NWS Daily Summary

Daily Weather History Graph

Daily Weather History Graph

Search for Another Location

Airport or City:

Trip Planner

Search our weather history database for the weather conditions in past years. The results will help you decide how hot, cold, wet, or windy it might be!

Date:

Astronomy

Dec. 06, 2012 Rise Set
Actual Time 6:45 AM PST 4:44 PM PST
Civil Twilight 6:17 AM PST 5:11 PM PST
Nautical Twilight 5:46 AM PST 5:42 PM PST
Astronomical Twilight 5:16 AM PST 6:13 PM PST
Moon No Moon Rise 11:56 AM PST (12/6)
Length of Visible Light 10h 54m
Length of Day
9h 59m
Waning Gibbous, 48% of the Moon is Illuminated
Dec 6
Waning Gibbous
Dec 13
New
Dec 19
First Quarter
Dec 28
Full
Jan 4
Last Quarter

Hourly Weather History & Observations

Time (PST) Temp. Dew Point Humidity Pressure Visibility Wind Dir Wind Speed Gust Speed Precip Events Conditions
12:53 AM 60.1 °F 54.0 °F 80% 30.02 in 5.0 mi Calm Calm - N/A   Haze
1:53 AM 60.1 °F 54.0 °F 80% 30.01 in 5.0 mi Calm Calm - N/A   Haze
2:32 AM 60.8 °F 53.6 °F 77% 30.00 in 5.0 mi Calm Calm - N/A   Haze
2:53 AM 60.1 °F 53.1 °F 78% 29.99 in 5.0 mi Calm Calm - N/A   Haze
3:53 AM 60.1 °F 53.1 °F 78% 29.98 in 5.0 mi Calm Calm - N/A   Haze
4:53 AM 60.1 °F 52.0 °F 75% 29.97 in 5.0 mi Calm Calm - N/A   Haze
5:30 AM 59.0 °F 51.8 °F 77% 29.97 in 5.0 mi Calm Calm - N/A   Haze
5:53 AM 57.9 °F 51.1 °F 78% 29.97 in 5.0 mi Calm Calm - N/A   Haze
6:53 AM 57.9 °F 51.1 °F 78% 29.97 in 4.0 mi Calm Calm - N/A   Haze
7:53 AM 60.1 °F 52.0 °F 75% 29.99 in 4.0 mi Calm Calm - N/A   Haze
8:16 AM 60.8 °F 51.8 °F 72% 29.99 in 4.0 mi Calm Calm - N/A   Haze
8:53 AM 61.0 °F 52.0 °F 72% 30.00 in 4.0 mi ENE 4.6 mph - N/A   Haze
9:53 AM 62.1 °F 51.1 °F 67% 30.01 in 4.0 mi Variable 3.5 mph - N/A   Haze
10:43 AM 62.6 °F 51.8 °F 68% 29.99 in 5.0 mi Calm Calm - N/A   Haze
10:53 AM 63.0 °F 51.1 °F 65% 29.99 in 5.0 mi East 3.5 mph - N/A   Haze
11:53 AM 64.0 °F 51.1 °F 63% 29.95 in 5.0 mi Variable 3.5 mph - N/A   Haze
12:53 PM 66.9 °F 51.1 °F 57% 29.91 in 5.0 mi Calm Calm - N/A   Haze
1:53 PM 66.0 °F 53.1 °F 63% 29.89 in 6.0 mi WSW 9.2 mph - N/A   Haze
2:53 PM 64.0 °F 53.1 °F 67% 29.89 in 6.0 mi WSW 10.4 mph - N/A   Haze
3:53 PM 62.1 °F 53.1 °F 72% 29.89 in 6.0 mi WSW 6.9 mph - N/A   Haze
4:53 PM 61.0 °F 54.0 °F 78% 29.89 in 5.0 mi West 3.5 mph - N/A   Haze
5:53 PM 60.1 °F 54.0 °F 80% 29.90 in 5.0 mi WNW 3.5 mph - N/A   Haze
6:53 PM 60.1 °F 54.0 °F 80% 29.91 in 6.0 mi WSW 3.5 mph - N/A   Haze
7:53 PM 60.1 °F 54.0 °F 80% 29.92 in 5.0 mi Calm Calm - N/A   Haze
8:12 PM 59.0 °F 53.6 °F 82% 29.92 in 5.0 mi Calm Calm - N/A   Haze
8:32 PM 60.8 °F 53.6 °F 77% 29.93 in 5.0 mi Calm Calm - N/A   Haze
8:53 PM 60.1 °F 55.0 °F 83% 29.94 in 5.0 mi Calm Calm - N/A   Haze
9:22 PM 59.0 °F 53.6 °F 82% 29.93 in 5.0 mi Calm Calm - N/A   Haze
9:53 PM 59.0 °F 54.0 °F 83% 29.94 in 5.0 mi Calm Calm - N/A   Haze
10:53 PM 59.0 °F 55.0 °F 87% 29.94 in 4.0 mi Calm Calm - N/A   Overcast
11:11 PM 59.0 °F 53.6 °F 82% 29.94 in 4.0 mi Calm Calm - N/A   Haze
11:53 PM 57.0 °F 54.0 °F 89% 29.94 in 3.0 mi Calm Calm - N/A   Clear